Location: Stockholm
(59.3330°N, 18.0500°E)
Time: 12:53:16
(UTC+01:00)

Envisat - Pass Details

Date: 04 December 2022
Orbit: 763 x 765 km, 98.2° (Epoch: 29 January)

Event Time Altitude Azimuth Distance (km) Brightness Sun altitude
Rises 02:59:23 0° 21° (NNE) 3,250 6.8 -38.8°
Reaches altitude 10° 03:02:09 10° 35° (NE) 2,318 6.0 -38.5°
Enters shadow 03:05:52 23° 82° (E) 1,577 5.1 -38.0°
